Wetbulb
53.58 53.33 53.43 53.24 53.27 53.30 53.32 53.26 53.10 53.14 53.30 53.18 53.02 52.84 52.84 52.35 52.43 52.73 53.04 53.05 53.36 53.59 53.40 53.47 54.61 53.19 48.58 44.78 47.55 56.54 60.22 57.83 60.62 57.65 51.23 48.59 44.01 40.71 37.58 39.65 41.92 38.52 40.59 42.28 43.11 43.38 44.56
51.81 51.85 52.44 52.67 52.99 52.75 52.77 52.86 52.62 52.68 52.78 52.89 52.72 52.52 52.32 52.34 52.24 52.43 52.52 52.66 52.92 53.15 53.06 53.09 53.46 52.10 45.70 37.09 52.63 53.99 52.58 57.21 58.74 56.65 50.55 48.86 45.85 43.94 40.18 39.93 40.46 41.85 41.82 41.32 42.17 41.97 44.68
52.33 52.26 51.45 50.92 51.18 51.46 52.22 52.14 52.21 52.06 52.32 52.52 52.32 52.10 52.05 51.91 52.08 51.92 51.87 52.08 52.27 52.45 52.50 52.47 52.76 51.14 43.25 40.67 50.32 51.02 50.74 52.07 58.27 57.47 50.89 49.96 48.15 43.85 41.48 38.76 42.03 40.90 38.43 38.93 39.64 40.99 42.46
52.53 52.34 52.22 51.74 51.15 50.50 50.16 50.97 51.33 51.60 51.72 51.94 51.87 51.75 51.54 51.54 51.71 51.88 51.94 52.12 52.09 52.00 52.28 52.54 52.49 48.41 39.71 49.60 50.76 49.73 50.44 51.56 57.88 56.89 51.76 51.69 49.23 44.58 41.45 41.94 40.24 37.65 36.40 32.38 37.66 40.96 40.89
52.13 51.94 51.95 51.66 51.47 50.65 50.04 49.48 49.80 50.47 51.02 51.26 51.26 51.10 51.26 51.24 51.49 51.41 51.47 51.98 52.43 52.27 52.42 52.25 47.79 44.34 37.82 50.72 47.18 51.93 51.04 49.83 54.75 53.52 52.28 53.04 47.89 42.45 41.02 35.94 32.32 33.04 28.67 30.89 35.14 40.84 39.59
51.55 51.57 51.47 51.21 51.12 51.08 50.86 50.05 49.63 49.83 49.57 49.96 50.29 50.71 50.74 50.87 50.99 51.25 51.67 52.06 49.97 46.85 49.41 50.87 48.64 39.70 40.96 41.72 49.49 52.00 53.57 51.71 51.86 51.16 48.25 45.17 43.29 37.02 34.41 32.64 28.69 28.33 30.08 31.83 33.31 38.70 37.43
50.47 50.58 50.65 50.55 50.51 50.64 50.61 50.48 50.31 50.35 50.15 50.02 49.47 49.45 49.88 50.09 50.40 51.20 48.57 39.81 34.60 32.95 36.11 36.29 35.82 39.24 42.87 47.14 50.06 49.33 52.67 49.83 50.24 47.34 40.10 40.16 37.32 34.42 36.86 35.13 34.90 33.97 33.21 32.80 34.10 38.90 36.94
48.96 48.94 49.04 49.46 49.71 49.98 50.02 49.84 49.84 49.71 49.55 49.56 49.39 49.51 49.33 49.81 50.09 50.57 44.25 36.38 35.33 36.07 31.02 36.13 36.42 36.65 39.14 46.46 40.31 46.07 52.42 46.18 45.89 41.83 39.09 36.77 35.26 39.36 38.73 38.19 36.11 34.07 32.59 31.59 35.04 37.80 36.48
48.68 48.47 48.40 48.24 48.41 48.70 48.85 48.94 49.20 49.29 49.14 49.16 48.93 49.26 49.52 49.82 49.80 44.92 41.50 40.95 43.27 39.90 28.86 32.73 36.66 36.73 37.94 43.27 38.68 40.18 48.68 46.82 43.75 39.40 38.31 35.14 36.75 39.90 38.28 35.84 35.52 32.09 33.23 31.56 33.89 36.41 36.16
48.45 47.86 47.59 47.57 47.56 47.46 47.56 48.04 48.29 48.56 48.35 48.37 48.69 49.47 50.15 50.25 42.50 42.32 40.31 44.46 44.43 41.90 22.96 27.60 33.50 38.55 39.90 43.23 37.61 43.86 45.25 46.71 43.23 39.16 38.75 36.12 39.86 38.52 36.61 35.75 36.49 31.32 35.74 36.18 35.55 32.50 28.25
48.49 48.24 47.93 47.46 46.70 46.90 46.83 47.04 47.58 47.73 47.92 47.84 48.72 49.86 50.40 48.96 41.32 39.48 43.75 45.44 43.19 41.82 3.34 30.95 33.00 41.41 39.65 36.91 39.87 42.88 48.36 46.86 39.77 38.81 37.87 35.48 36.20 37.09 35.70 36.81 37.75 34.33 38.55 37.02 35.51 31.81 29.74
48.07 47.95 47.72 47.22 46.86 46.27 46.49 47.03 47.09 47.20 47.48 48.14 48.68 49.84 49.97 44.26 42.04 44.83 47.76 46.01 41.56 15.05 3.71 26.95 34.06 32.93 33.59 35.50 37.73 39.37 44.89 48.09 44.99 40.54 39.47 37.86 40.56 39.47 38.68 38.72 39.34 39.21 37.42 35.89 33.39 30.38 23.90
47.92 47.69 47.18 47.00 46.69 46.37 45.86 46.58 46.65 46.95 47.13 48.13 48.54 49.16 46.64 46.18 39.50 46.99 46.01 37.73 14.66 10.35 29.69 26.45 28.98 32.37 31.31 31.22 33.36 35.01 38.73 40.34 36.16 32.84 33.16 36.54 35.92 38.72 40.65 36.20 37.53 38.09 34.04 24.18 22.62 21.37 24.08
47.66 47.39 47.47 46.85 46.51 46.27 45.93 46.15 46.37 46.71 46.86 48.39 48.11 47.22 45.52 45.16 44.82 43.87 36.01 21.83 9.58 18.28 24.01 30.70 30.75 31.34 28.01 31.64 33.06 34.13 33.61 36.97 39.27 36.30 33.27 31.00 29.07 36.49 39.45 38.57 34.92 36.58 34.21 25.38 17.19 20.70 24.22
47.45 47.14 46.80 46.65 46.35 46.30 46.07 45.88 46.03 46.14 46.51 47.53 46.10 39.53 40.63 43.01 45.01 40.53 27.16 14.11 19.48 23.24 28.33 27.09 29.18 26.10 26.39 30.91 30.87 32.36 33.82 36.15 38.15 36.17 31.44 30.94 30.22 38.20 39.04 39.13 39.59 33.66 32.29 35.08 27.24 24.06 24.66
47.43 47.06 46.84 46.49 46.18 45.74 45.91 45.81 45.62 45.83 46.63 46.86 36.51 35.65 37.25 42.42 42.86 33.70 21.75 19.55 22.23 30.79 30.09 29.93 24.93 28.19 24.03 26.85 27.83 28.95 30.81 39.55 38.22 38.96 37.83 34.69 29.36 35.36 37.34 40.05 38.25 38.38 39.40 30.70 28.08 20.94 21.22
47.15 47.04 46.77 46.21 45.72 45.45 45.44 45.41 45.44 45.58 46.18 46.03 34.31 30.32 37.35 39.80 36.79 26.74 16.02 21.68 26.89 31.43 31.89 28.61 27.49 26.35 28.00 27.56 29.30 28.75 29.29 37.75 41.47 38.40 38.88 35.88 33.69 31.20 36.65 35.69 35.73 34.25 34.26 33.12 33.63 28.20 23.77
46.92 46.83 46.55 46.02 45.46 45.35 45.08 45.11 45.18 45.17 45.67 41.83 31.21 21.97 37.45 35.96 22.30 13.45 14.11 25.09 31.11 28.88 32.26 30.51 31.47 32.03 27.15 29.92 28.30 28.86 29.65 33.23 37.06 39.16 36.01 37.49 35.14 29.54 33.35 35.63 37.54 37.46 37.23 33.60 30.81 26.99 25.27
46.70 46.62 46.24 45.67 45.30 45.18 44.89 44.76 44.85 44.82 45.06 37.32 24.54 26.68 34.79 33.21 16.28 18.67 25.24 25.98 28.03 27.43 27.20 27.31 26.13 29.72 30.41 27.10 26.41 30.42 30.14 34.52 37.08 35.26 37.32 38.85 33.97 27.51 28.75 32.87 34.63 36.40 36.19 38.44 37.39 31.78 28.38
46.36 46.17 45.87 45.55 45.29 44.92 44.71 44.41 44.40 44.45 44.63 33.53 22.84 17.36 25.43 25.44 23.89 21.68 22.39 23.44 23.52 28.75 27.88 28.09 27.83 29.76 27.15 25.09 27.64 24.24 26.30 34.08 33.07 34.37 39.68 40.88 34.99 30.55 27.81 31.77 33.79 29.93 36.17 34.26 36.97 31.49 28.78
46.30 46.05 45.87 45.57 45.36 44.98 44.65 44.37 44.16 43.98 43.74 33.36 25.22 25.73 29.00 19.20 19.30 22.49 23.67 23.67 17.29 19.69 26.70 27.89 25.12 26.57 26.25 21.01 22.69 24.06 27.31 27.35 31.52 37.82 38.39 37.56 32.09 32.57 31.34 32.21 33.68 32.95 36.10 35.32 33.44 36.12 31.67
46.36 46.19 45.96 45.79 45.42 45.01 44.46 44.06 43.79 43.54 42.39 31.54 22.80 24.95 27.96 25.39 20.98 17.84 15.30 12.40 14.83 19.64 23.61 20.03 21.06 25.49 26.03 22.93 22.60 21.27 24.42 25.67 27.02 32.47 33.62 35.42 31.95 33.22 29.98 33.20 31.55 31.12 34.50 36.57 37.49 37.75 36.36
46.31 46.24 46.01 45.74 45.42 44.76 44.24 43.84 43.55 43.15 39.33 28.66 29.66 30.07 27.53 20.36 7.97 10.36 9.70 18.73 21.70 25.53 24.70 28.07 27.98 26.21 23.26 25.76 30.06 31.30 31.50 31.05 29.71 27.51 28.44 31.30 31.87 30.77 26.09 29.44 28.29 23.95 31.12 34.25 35.94 35.19 36.82
46.40 46.14 45.97 45.69 45.29 44.59 44.10 43.83 43.43 42.85 39.57 32.05 30.59 30.67 23.54 16.79 13.57 13.99 16.16 23.87 22.67 24.56 23.79 26.77 28.08 25.74 29.09 33.42 32.39 31.03 29.46 28.74 29.56 29.74 30.65 28.58 29.01 31.63 27.68 28.73 22.35 30.21 32.66 36.26 35.39 35.37 37.13
46.71 45.94 45.90 45.54 45.20 44.41 43.97 43.87 43.47 42.70 42.27 33.03 31.93 29.27 30.62 21.58 23.70 20.66 24.39 17.71 23.30 23.64 22.13 25.44 27.75 30.42 33.14 30.92 25.34 23.45 25.80 27.57 27.97 28.89 28.56 30.70 30.28 28.77 26.69 25.94 27.33 28.70 32.88 32.50 31.38 33.43 35.54
46.70 46.38 45.83 45.44 45.09 44.19 43.74 44.00 43.99 43.10 42.34 33.19 31.64 36.18 34.13 25.57 15.19 22.85 21.82 16.09 21.83 19.45 17.86 22.38 29.07 30.84 33.48 28.12 19.56 13.71 15.05 24.56 26.19 30.67 32.10 31.37 31.99 28.51 27.61 25.63 22.49 31.03 37.03 35.29 35.90 27.98 36.16
46.39 46.40 45.92 45.36 44.93 44.22 43.48 43.78 43.88 43.69 42.51 34.10 31.80 36.86 34.08 27.43 24.34 22.58 19.89 24.19 27.52 24.16 18.34 16.08 23.29 23.81 29.97 22.67 17.48 19.95 19.80 31.03 26.44 27.50 27.74 28.14 29.08 25.54 27.14 23.95 23.53 27.46 30.15 34.49 27.33 28.54 32.35
45.99 46.11 45.96 45.17 44.89 44.18 43.26 43.35 43.67 43.54 42.50 34.84 32.22 36.15 35.95 30.93 28.90 27.49 30.12 27.89 29.16 23.00 13.71 19.74 19.77 20.75 18.74 18.79 19.33 21.13 21.72 25.75 28.64 29.58 30.41 29.33 28.18 28.13 29.69 27.92 24.67 26.78 28.95 27.27 25.95 29.15 30.61
45.17 45.70 45.69 45.03 44.71 44.02 42.88 42.85 43.39 43.38 42.65 37.61 30.24 35.63 35.36 32.76 24.70 30.65 32.60 35.29 34.06 29.02 25.43 18.80 17.56 23.19 26.73 19.06 17.21 15.91 19.88 24.86 23.99 23.63 24.26 20.76 12.38 16.01 20.73 21.21 21.04 24.38 25.16 24.45 25.41 26.31 29.18
MSLP
1021.03 1020.34 1019.96 1019.35 1018.64 1017.97 1017.34 1016.75 1016.18 1015.52 1014.80 1014.33 1013.88 1013.49 1013.11 1012.90 1012.67 1012.54 1012.41 1012.24 1012.03 1011.84 1011.73 1011.62 1011.20 1011.16 1011.09 1010.53 1008.57 1007.28 1007.09 1007.18 1007.48 1008.27 1008.76 1009.33 1009.77 1009.88 1010.12 1010.16 1010.40 1010.14 1009.77 1009.50 1009.05 1009.23 1008.90
1021.29 1020.69 1020.12 1019.60 1018.95 1018.40 1017.71 1017.02 1016.44 1015.83 1015.17 1014.64 1014.08 1013.62 1013.32 1012.99 1012.61 1012.50 1012.32 1012.07 1011.85 1011.73 1011.61 1011.38 1011.23 1011.40 1011.33 1010.88 1008.26 1007.58 1007.64 1007.26 1007.26 1008.16 1008.50 1009.08 1009.25 1009.29 1009.71 1009.83 1009.98 1009.62 1009.60 1009.48 1009.15 1009.29 1009.10
1021.47 1020.84 1020.38 1019.97 1019.31 1018.66 1018.09 1017.39 1016.63 1016.07 1015.47 1014.89 1014.31 1013.92 1013.52 1013.03 1012.63 1012.31 1012.12 1011.88 1011.62 1011.45 1011.29 1011.28 1011.06 1011.00 1010.75 1009.95 1008.33 1007.88 1008.39 1008.15 1007.60 1007.67 1008.14 1008.60 1008.73 1009.08 1009.29 1009.78 1009.55 1009.78 1010.19 1010.07 1009.52 1009.45 1009.37
1021.83 1021.34 1020.65 1020.21 1019.62 1018.99 1018.32 1017.68 1017.05 1016.29 1015.64 1015.12 1014.59 1014.07 1013.57 1013.13 1012.64 1012.22 1011.90 1011.53 1011.18 1010.87 1010.85 1010.78 1010.81 1010.90 1010.06 1008.52 1008.22 1008.24 1008.35 1007.96 1007.24 1007.58 1007.76 1008.30 1008.66 1009.07 1009.32 1009.28 1009.78 1010.26 1010.68 1010.95 1009.96 1009.86 1009.62
1022.37 1021.61 1020.89 1020.36 1019.69 1019.03 1018.44 1017.84 1017.17 1016.41 1015.83 1015.33 1014.79 1014.27 1013.78 1013.21 1012.58 1012.10 1011.61 1011.03 1010.58 1010.22 1010.08 1010.30 1010.69 1010.85 1009.48 1008.00 1008.04 1007.31 1007.94 1007.98 1007.58 1007.84 1007.97 1008.17 1008.80 1009.14 1009.52 1009.77 1010.65 1010.66 1011.12 1011.07 1010.58 1010.26 1010.13
1022.71 1021.92 1021.24 1020.58 1019.95 1019.24 1018.59 1017.90 1017.25 1016.53 1015.87 1015.26 1014.78 1014.25 1013.69 1013.17 1012.53 1011.91 1011.22 1010.40 1010.14 1010.11 1009.96 1010.05 1010.51 1011.04 1009.29 1007.87 1007.24 1007.19 1007.21 1007.54 1007.78 1008.15 1008.26 1008.56 1009.14 1009.46 1009.91 1010.18 1009.72 1010.76 1011.07 1011.06 1010.85 1010.54 1010.78
1023.09 1022.29 1021.54 1020.85 1020.23 1019.58 1018.94 1018.21 1017.39 1016.63 1016.09 1015.35 1014.77 1014.24 1013.65 1013.06 1012.47 1011.72 1011.18 1010.94 1011.20 1011.29 1011.25 1011.24 1011.23 1010.26 1008.92 1008.25 1007.80 1007.22 1007.14 1007.35 1007.90 1008.12 1008.22 1008.58 1009.08 1008.66 1008.61 1009.49 1009.57 1010.09 1010.55 1010.73 1010.85 1010.54 1010.78
1023.49 1022.83 1022.06 1021.43 1020.62 1019.77 1019.08 1018.40 1017.76 1017.01 1016.26 1015.57 1014.86 1014.23 1013.56 1012.99 1012.42 1011.86 1011.84 1012.46 1013.02 1013.49 1012.73 1011.80 1011.13 1010.82 1010.11 1009.59 1008.69 1006.90 1007.02 1007.49 1007.61 1007.73 1008.29 1008.99 1007.93 1008.75 1009.35 1009.69 1009.85 1010.12 1010.55 1010.95 1011.08 1011.15 1011.29
1023.72 1023.22 1022.64 1021.92 1020.99 1020.04 1019.26 1018.60 1017.88 1017.14 1016.40 1015.61 1014.85 1014.05 1013.37 1012.79 1012.35 1012.41 1012.62 1012.88 1012.97 1013.35 1013.45 1011.97 1011.42 1010.86 1009.96 1009.40 1008.97 1007.78 1007.38 1007.25 1007.12 1007.74 1007.58 1007.44 1007.44 1008.56 1009.22 1009.66 1009.96 1010.08 1010.21 1010.93 1011.14 1011.85 1012.36
1023.92 1023.24 1022.43 1021.78 1021.18 1020.53 1019.78 1018.90 1018.19 1017.38 1016.46 1015.69 1014.85 1013.84 1013.09 1012.61 1012.75 1013.02 1012.84 1012.71 1013.11 1013.18 1013.02 1012.17 1011.17 1011.02 1010.40 1009.23 1008.37 1007.55 1007.90 1007.23 1006.91 1006.90 1007.59 1007.68 1007.87 1008.19 1008.88 1009.35 1009.51 1010.03 1010.18 1010.77 1011.57 1012.30 1013.23
1024.09 1023.19 1022.52 1021.87 1021.14 1020.57 1019.58 1018.62 1017.95 1017.41 1016.55 1015.63 1014.73 1013.73 1013.02 1012.72 1013.29 1013.21 1012.95 1012.84 1013.17 1013.31 1013.12 1011.78 1011.00 1010.63 1010.62 1009.87 1008.15 1007.00 1006.73 1006.86 1006.17 1006.22 1006.95 1007.16 1007.31 1007.69 1008.25 1008.25 1009.31 1010.01 1010.25 1011.18 1012.16 1013.05 1013.39
1024.26 1023.63 1022.95 1022.18 1021.51 1020.92 1020.16 1019.07 1018.26 1017.34 1016.56 1015.66 1014.69 1013.77 1013.14 1013.37 1013.42 1012.98 1012.68 1012.98 1013.25 1013.90 1013.48 1012.08 1011.19 1010.62 1010.38 1009.71 1008.38 1007.51 1006.05 1006.31 1005.77 1006.30 1006.85 1007.23 1007.21 1007.62 1007.50 1008.46 1009.05 1009.87 1010.90 1012.17 1013.15 1013.97 1014.09
1024.75 1023.95 1023.14 1022.35 1021.46 1020.77 1020.01 1019.04 1018.33 1017.49 1016.63 1015.79 1014.83 1014.09 1013.58 1013.55 1013.82 1012.91 1012.71 1013.46 1014.27 1014.75 1013.80 1012.46 1011.29 1010.61 1010.20 1009.51 1008.73 1008.56 1006.95 1005.93 1005.35 1006.38 1006.91 1007.24 1007.33 1007.00 1007.16 1008.35 1009.02 1009.44 1010.73 1013.14 1014.47 1014.79 1013.60
1025.09 1024.31 1023.44 1022.66 1021.89 1021.03 1020.10 1019.25 1018.32 1017.45 1016.59 1015.78 1014.92 1014.46 1014.25 1014.14 1013.73 1013.12 1013.47 1014.49 1015.44 1015.52 1014.44 1012.90 1011.85 1011.16 1010.59 1009.94 1009.44 1008.43 1007.41 1005.92 1006.36 1005.92 1006.62 1006.74 1007.57 1006.67 1006.24 1006.41 1006.63 1007.52 1009.09 1010.65 1012.08 1013.23 1013.56
1025.15 1024.53 1023.88 1023.07 1022.25 1021.27 1020.28 1019.54 1018.76 1017.74 1016.76 1015.67 1014.96 1015.09 1014.88 1014.42 1013.72 1013.46 1014.47 1015.72 1016.38 1015.73 1014.97 1013.57 1011.94 1011.45 1010.66 1010.02 1009.63 1009.12 1007.96 1005.96 1005.86 1005.33 1005.52 1006.16 1006.58 1006.07 1005.92 1005.94 1006.24 1007.89 1008.59 1008.94 1011.04 1012.38 1012.63
1025.67 1024.89 1024.08 1023.34 1022.35 1021.42 1020.75 1019.82 1018.85 1017.91 1016.78 1015.86 1015.96 1015.84 1015.39 1014.80 1014.02 1014.25 1015.66 1016.80 1016.36 1015.59 1014.77 1013.63 1012.81 1011.87 1011.21 1010.34 1009.73 1008.60 1007.54 1005.99 1005.64 1005.37 1004.88 1005.20 1006.40 1006.10 1006.04 1005.93 1006.16 1006.16 1007.00 1009.03 1010.35 1011.61 1011.87
1025.95 1025.28 1024.53 1023.67 1022.93 1022.04 1021.02 1020.13 1019.17 1018.16 1017.01 1016.04 1016.40 1016.51 1015.55 1015.05 1014.85 1016.02 1017.96 1017.76 1016.65 1015.46 1014.77 1014.05 1013.27 1012.57 1011.97 1011.37 1010.34 1009.40 1008.70 1007.05 1007.11 1005.79 1005.49 1005.40 1005.18 1006.67 1006.13 1005.47 1005.26 1006.13 1006.64 1007.45 1008.44 1009.88 1010.11
1026.22 1025.44 1024.72 1024.16 1023.20 1022.20 1021.25 1020.40 1019.48 1018.63 1017.45 1016.85 1017.59 1017.71 1016.27 1015.65 1017.31 1019.19 1019.32 1018.53 1017.17 1015.78 1014.91 1014.42 1013.88 1012.97 1012.89 1011.95 1011.10 1010.45 1009.80 1009.17 1008.44 1007.14 1006.52 1005.72 1005.23 1006.02 1005.42 1005.43 1005.22 1005.30 1005.58 1006.68 1007.52 1008.72 1009.19
1026.61 1025.68 1024.90 1024.16 1023.44 1022.62 1021.74 1020.70 1019.82 1019.08 1018.28 1018.22 1019.05 1019.25 1017.40 1017.10 1019.83 1020.56 1019.86 1019.02 1018.01 1016.85 1015.77 1014.94 1014.29 1013.84 1013.48 1012.90 1012.24 1011.16 1010.58 1010.06 1009.54 1008.70 1007.58 1007.08 1006.23 1006.39 1006.69 1006.29 1005.79 1005.49 1005.44 1005.69 1006.22 1006.96 1007.62
1026.87 1026.17 1025.26 1024.46 1023.76 1022.81 1021.94 1021.14 1020.24 1019.50 1018.72 1018.89 1020.05 1020.55 1020.17 1020.30 1021.52 1021.71 1021.00 1020.10 1018.84 1017.62 1016.86 1016.10 1015.30 1014.24 1014.31 1013.80 1013.20 1012.47 1011.54 1010.57 1009.96 1009.17 1008.37 1007.90 1007.20 1006.42 1005.56 1004.42 1004.82 1005.13 1004.80 1005.02 1005.52 1006.24 1006.67
1027.21 1026.47 1025.73 1024.83 1024.01 1023.26 1022.42 1021.69 1020.82 1020.01 1019.36 1019.63 1021.27 1022.39 1022.68 1022.68 1022.59 1022.87 1022.29 1021.29 1020.35 1019.17 1017.97 1017.14 1016.17 1015.90 1015.62 1014.50 1013.88 1013.16 1012.56 1011.93 1010.20 1009.49 1008.47 1008.41 1007.87 1007.25 1006.56 1005.81 1005.29 1004.67 1004.55 1004.92 1005.30 1005.08 1005.80
1027.44 1026.74 1025.98 1025.08 1024.33 1023.63 1022.85 1022.20 1021.39 1020.73 1020.19 1021.17 1022.64 1023.00 1022.82 1023.05 1023.57 1023.53 1023.02 1022.34 1021.25 1020.03 1019.32 1017.88 1017.50 1017.01 1016.38 1015.84 1015.32 1014.43 1014.19 1013.52 1012.34 1011.14 1009.98 1009.38 1008.78 1008.22 1007.59 1006.70 1006.03 1005.40 1004.80 1004.66 1004.35 1004.41 1004.81
1027.75 1026.97 1026.20 1025.27 1024.46 1023.90 1023.26 1022.53 1021.83 1021.24 1021.18 1022.31 1022.97 1022.94 1023.15 1023.52 1024.42 1024.74 1024.22 1022.96 1021.67 1020.66 1018.85 1018.23 1017.69 1017.26 1016.48 1015.92 1015.32 1014.62 1014.40 1014.12 1013.20 1012.88 1011.89 1010.64 1009.59 1008.87 1008.32 1007.49 1006.96 1006.09 1004.56 1003.88 1003.71 1003.98 1004.12
1027.86 1027.19 1026.39 1025.64 1024.77 1024.13 1023.51 1022.89 1022.45 1021.97 1021.99 1022.52 1022.95 1023.27 1023.41 1024.14 1024.42 1024.62 1024.14 1023.12 1021.87 1020.91 1019.87 1017.98 1017.51 1016.91 1015.61 1015.79 1015.08 1013.92 1013.17 1012.71 1012.58 1012.18 1012.14 1011.35 1010.46 1009.22 1008.90 1008.39 1007.34 1005.09 1004.29 1003.88 1003.97 1003.85 1004.04
1027.98 1027.24 1026.67 1025.95 1025.03 1024.33 1023.71 1023.18 1022.75 1022.49 1022.06 1022.56 1022.73 1023.22 1023.37 1023.76 1023.94 1023.60 1023.19 1022.73 1021.52 1020.45 1019.46 1018.17 1016.85 1016.43 1015.71 1014.81 1014.02 1012.98 1012.36 1011.87 1010.88 1010.90 1010.89 1011.16 1011.04 1009.79 1008.83 1008.51 1007.26 1005.81 1004.83 1004.47 1004.29 1003.83 1004.23
1028.27 1027.49 1026.91 1026.27 1025.38 1024.57 1023.96 1023.43 1023.02 1022.79 1022.52 1022.74 1022.89 1022.74 1022.97 1023.63 1023.64 1023.52 1023.36 1022.92 1022.17 1021.06 1019.66 1018.48 1017.19 1016.27 1015.80 1015.17 1014.76 1014.31 1012.77 1011.28 1010.57 1009.71 1010.00 1010.83 1010.88 1010.58 1009.27 1008.42 1007.56 1005.21 1004.46 1004.45 1005.02 1005.33 1004.55
1028.54 1027.66 1026.92 1026.56 1025.76 1024.91 1024.17 1023.52 1023.03 1022.82 1022.84 1023.16 1023.11 1022.76 1022.88 1023.30 1022.95 1023.11 1023.06 1022.66 1022.45 1022.24 1021.57 1020.20 1019.21 1017.43 1016.52 1016.26 1015.58 1014.30 1012.55 1010.84 1010.38 1010.13 1010.82 1011.18 1011.40 1010.73 1010.36 1009.57 1008.64 1008.28 1007.27 1005.84 1006.97 1007.27 1006.34
1028.67 1028.07 1027.05 1026.58 1025.88 1025.20 1024.50 1023.84 1023.36 1022.93 1022.80 1023.33 1023.40 1023.04 1023.14 1023.12 1022.48 1022.51 1022.50 1022.41 1022.09 1022.30 1022.53 1021.34 1019.95 1019.06 1018.41 1017.82 1017.38 1016.51 1014.75 1012.61 1011.66 1011.15 1011.39 1012.20 1012.62 1011.93 1011.95 1011.85 1011.97 1011.06 1009.31 1009.82 1011.09 1009.10 1008.47
1028.57 1028.06 1027.33 1026.55 1025.96 1025.19 1024.56 1023.92 1023.54 1023.08 1022.65 1023.00 1023.64 1023.30 1023.16 1023.40 1022.95 1022.53 1022.21 1021.84 1021.96 1022.17 1022.50 1022.11 1022.01 1021.19 1019.68 1019.26 1018.76 1018.03 1016.81 1015.34 1015.02 1014.06 1014.19 1015.71 1017.68 1016.07 1015.21 1015.00 1015.30 1014.89 1014.10 1014.29 1013.42 1012.15 1010.02
Wind_Speed
24 24 24 23 25 25 24 24 23 21 21 18 16 15 14 13 12 11 12 12 13 12 11 13 12 7 5 8 7 5 16 10 14 8 10 8 7 6 6 7 5 4 4 6 7 5 3
23 24 24 24 26 26 26 25 23 23 21 20 19 17 16 15 14 13 13 14 15 14 12 12 12 3 4 9 9 11 16 6 10 10 9 8 9 5 6 7 8 9 4 2 2 1 4
23 23 21 24 25 26 26 27 26 23 22 21 19 18 18 17 16 16 16 16 16 16 14 13 12 6 5 15 7 16 14 7 7 13 10 6 4 6 5 5 3 6 7 4 3 2 4
25 25 24 24 23 23 25 24 25 26 23 22 21 21 18 17 18 18 19 19 19 19 16 14 12 3 8 10 8 10 12 11 4 6 5 7 6 3 2 2 5 6 6 5 4 4 1
27 27 26 24 23 24 23 23 25 25 24 23 22 21 21 21 19 19 21 22 21 19 13 9 4 3 9 2 5 7 9 6 4 5 4 7 3 5 2 6 5 1 6 5 2 6 2
25 26 27 26 26 25 25 23 21 22 24 24 23 23 22 22 22 23 22 23 8 4 5 3 1 1 5 3 1 4 7 7 3 7 3 5 4 4 2 5 15 8 7 4 7 7 2
26 27 26 26 27 27 27 26 26 25 25 23 22 22 22 21 22 22 10 5 7 7 7 5 4 6 3 7 6 3 5 7 4 4 8 6 9 18 23 6 5 6 7 7 3 5 6
25 27 27 28 28 27 27 27 27 27 25 25 25 25 23 21 21 10 4 5 3 3 6 6 8 8 10 4 7 7 8 8 8 13 6 6 21 11 7 8 5 6 9 4 2 3 4
26 26 27 27 27 28 28 28 29 28 27 27 27 24 20 19 17 4 2 1 4 3 1 5 2 7 8 6 8 8 8 9 11 12 15 10 1 10 8 6 10 4 14 6 7 5 4
25 25 24 25 27 27 26 27 27 30 29 28 29 24 19 15 5 4 2 2 2 2 3 6 5 2 7 6 8 14 10 9 6 18 12 2 6 14 9 11 10 5 5 7 11 7 5
27 27 28 28 26 27 26 26 28 28 29 29 29 23 19 5 2 3 4 3 2 1 6 5 4 1 5 8 4 7 15 13 9 8 8 9 11 19 18 13 8 3 6 8 5 5 5
26 27 28 29 28 27 29 28 28 29 30 31 29 21 11 3 1 4 1 3 1 8 4 5 3 5 5 4 2 5 9 4 5 6 5 5 4 10 10 6 9 7 9 8 6 4 2
27 28 27 28 29 30 29 28 28 29 30 32 28 15 6 3 4 10 2 3 7 7 6 7 8 11 11 2 2 6 7 12 10 10 10 4 5 3 8 8 3 6 9 1 2 1 6
25 28 28 28 30 28 29 29 29 29 31 30 27 10 5 2 6 5 4 7 10 4 4 8 6 11 6 7 2 3 5 13 11 6 8 12 6 11 10 16 13 20 11 8 9 6 4
26 24 27 28 29 31 31 30 30 30 30 29 15 4 4 7 7 3 6 7 0 4 6 9 13 3 4 3 3 1 7 9 9 6 8 13 6 6 6 4 13 7 13 7 8 2 5
26 27 26 28 29 29 31 31 30 30 30 25 2 4 4 13 6 5 7 3 2 5 10 4 4 3 5 8 7 7 3 10 3 7 1 6 6 3 2 4 2 15 9 6 1 8 6
26 27 28 28 29 30 29 31 31 31 31 20 4 4 4 13 5 8 5 4 5 6 10 4 4 4 3 5 5 5 5 2 8 3 5 2 6 3 6 11 14 4 9 5 6 5 8
26 27 28 29 28 29 30 30 30 30 30 7 3 4 6 7 7 2 3 8 8 9 5 4 4 4 4 7 4 4 3 4 15 11 3 2 2 8 18 1 1 7 14 6 7 11 2
26 27 27 28 28 29 29 29 29 29 28 3 3 2 5 6 5 5 6 5 3 7 7 6 5 8 7 5 5 4 9 10 9 8 4 4 4 6 4 2 2 10 7 18 12 4 11
26 27 27 28 29 29 28 28 28 28 28 5 4 5 6 6 3 4 8 6 13 7 5 8 5 7 7 4 6 8 7 5 14 7 11 4 2 1 12 20 10 6 18 8 21 12 5
25 27 28 28 28 29 29 27 26 25 26 5 5 3 1 5 6 7 5 5 6 9 4 6 6 6 7 6 9 2 10 11 10 15 2 7 3 1 3 4 6 6 18 15 12 20 15
25 26 27 28 29 29 28 26 24 23 17 6 4 3 3 3 3 6 6 4 2 6 3 6 2 7 10 7 7 14 7 4 5 9 10 7 1 2 4 3 6 6 10 16 21 19 16
25 27 28 28 29 29 27 24 22 19 10 4 2 3 1 4 4 4 4 5 6 12 6 10 12 11 10 10 5 7 7 9 12 8 6 5 1 4 4 5 6 4 12 16 17 8 15
25 26 27 28 29 28 26 23 20 17 7 3 1 0 3 4 3 2 4 10 9 10 8 10 10 5 4 13 14 12 13 13 13 13 11 4 6 1 2 4 5 6 3 10 12 7 14
24 25 27 28 28 27 25 22 18 15 11 3 1 3 2 4 4 4 13 5 11 7 5 4 6 11 12 4 4 6 1 3 7 13 16 13 2 4 5 8 5 2 6 7 9 17 7
24 26 27 28 28 27 24 21 17 14 11 3 1 1 1 2 5 3 5 2 7 10 8 5 9 8 7 3 3 1 4 4 4 2 12 13 10 4 1 5 9 9 14 6 8 9 9
24 24 26 27 28 26 24 19 17 14 11 3 1 2 1 2 3 3 1 3 3 5 4 5 15 9 5 5 3 2 4 4 1 3 4 5 5 11 9 3 8 8 11 5 8 6 8
23 24 25 26 26 26 24 18 15 15 10 3 2 1 2 2 4 3 2 2 2 2 3 8 9 5 5 7 4 5 4 6 6 4 4 4 4 6 6 4 7 18 5 2 9 9 10
23 24 24 25 26 26 23 18 14 14 9 4 2 3 1 3 5 2 4 5 4 2 4 3 5 5 3 3 4 3 3 4 5 4 9 3 6 6 8 4 11 10 11 10 13 13 12
Wind_Direction
16 17 15 9 6 9 5 2 1 358 357 2 5 356 353 345 338 325 320 317 312 308 316 320 322 54 39 307 233 306 345 322 194 158 172 170 164 140 168 166 128 173 188 187 249 304 158
9 9 11 8 6 8 6 6 3 357 357 354 358 357 351 343 339 334 324 322 313 307 307 305 313 153 136 267 278 347 347 312 163 172 176 156 187 189 139 178 162 189 169 93 347 258 131
13 10 5 359 0 2 2 2 1 3 358 357 358 355 348 343 340 335 328 319 312 305 296 290 290 302 216 236 266 306 317 304 246 186 169 188 177 161 128 128 201 122 163 19 294 239 154
16 15 11 7 2 1 354 360 0 360 1 0 358 355 353 344 341 336 329 319 309 301 288 277 267 284 251 236 252 283 290 295 191 177 139 129 156 137 209 138 71 113 82 148 265 151 209
14 17 13 8 3 3 1 357 353 355 1 358 355 354 350 343 341 334 328 314 307 299 285 244 224 178 267 328 235 263 209 255 136 146 113 147 152 177 153 125 74 205 168 162 214 191 132
12 14 15 14 10 3 2 358 356 351 351 350 350 348 347 345 341 335 328 317 319 346 9 151 78 129 271 251 204 302 185 174 167 131 110 122 150 148 106 157 186 167 139 151 168 202 133
5 6 8 9 8 7 7 4 359 358 353 353 347 341 340 340 337 335 345 3 16 0 22 332 328 283 340 333 243 243 178 145 156 164 173 174 166 201 197 133 136 136 120 135 192 198 118
14 6 5 1 360 3 4 2 360 358 357 353 348 341 339 337 335 5 33 65 137 207 311 286 288 263 281 341 306 298 157 175 171 179 138 121 210 184 136 168 143 155 154 149 74 120 115
19 15 9 5 360 359 357 358 356 353 353 351 346 339 333 332 329 31 31 47 152 145 311 288 270 303 305 156 236 278 209 193 185 169 192 188 234 144 152 170 176 174 180 168 145 111 65
21 16 9 10 4 359 357 353 356 351 351 347 343 338 337 337 41 324 32 207 103 330 23 311 326 103 330 231 235 223 255 206 202 189 188 339 169 159 157 196 178 168 176 133 128 106 187
12 11 10 10 10 0 352 355 355 353 348 348 342 340 342 44 290 4 303 135 142 285 54 301 303 83 307 254 358 196 209 229 177 154 148 192 164 173 183 191 143 179 139 135 135 116 106
14 9 7 5 8 5 354 357 356 351 350 348 344 343 7 30 18 264 330 126 337 42 296 324 270 282 310 294 316 324 206 217 176 129 87 174 149 166 180 139 149 138 83 50 51 84 259
5 8 8 6 6 360 4 357 356 353 350 348 346 347 32 348 322 320 354 61 38 80 343 315 320 325 328 270 342 170 253 185 169 146 164 148 186 130 134 114 126 147 137 69 2 260 214
10 6 4 5 1 3 4 360 356 355 351 346 344 342 340 35 318 336 50 50 60 239 325 307 311 317 324 0 98 270 301 179 198 170 140 169 183 174 180 183 181 192 166 156 180 176 175
5 10 3 5 3 1 1 1 356 354 351 348 351 342 348 341 330 23 67 48 149 316 325 308 309 349 308 317 311 167 219 206 187 193 153 181 221 163 169 151 152 181 202 170 95 351 97
5 2 7 1 3 1 1 360 358 355 352 354 33 346 325 337 339 49 66 17 284 335 330 287 315 356 323 329 354 351 295 181 137 215 311 174 179 220 163 117 103 183 156 158 38 161 203
5 4 2 4 2 1 2 1 359 356 353 351 42 30 285 343 35 41 82 307 309 306 345 309 304 296 326 312 321 342 330 256 202 264 139 209 141 207 145 200 184 128 193 185 152 155 189
5 4 3 3 0 360 0 2 360 358 356 18 33 36 312 357 50 32 16 321 303 324 360 311 291 322 346 315 337 314 327 2 339 315 255 251 192 163 194 156 200 185 201 157 186 214 160
5 5 5 2 360 359 0 360 0 360 1 331 63 302 329 47 58 10 326 309 291 342 311 350 315 360 353 303 313 357 5 327 4 335 191 9 245 134 123 247 42 199 197 206 223 77 199
7 6 6 3 1 359 360 358 0 2 359 66 67 24 337 33 32 17 2 341 344 330 312 340 307 334 350 338 4 320 317 330 318 332 271 332 263 197 197 196 165 178 209 203 209 223 198
6 5 3 4 2 360 358 360 0 4 359 73 28 48 94 334 350 349 348 331 344 347 359 310 342 18 357 313 325 319 21 336 326 2 16 169 217 180 337 324 161 177 195 192 195 220 210
2 2 2 3 3 2 0 359 2 6 12 65 87 24 334 327 321 345 343 309 306 305 254 311 205 303 297 279 260 292 323 333 296 348 353 355 204 124 311 348 25 217 214 203 217 218 226
2 359 359 2 3 3 2 360 3 10 46 71 344 332 67 340 360 39 268 312 309 321 272 247 284 301 273 269 272 269 264 257 260 300 327 323 265 128 240 64 14 342 211 207 217 209 210
359 358 359 359 2 3 2 3 4 9 65 117 209 47 31 303 59 255 322 317 290 314 275 280 297 273 259 323 293 252 243 241 236 241 217 289 335 242 167 81 207 248 314 214 216 216 222
360 359 360 358 360 4 2 5 8 9 27 76 50 84 353 327 302 325 337 298 301 277 265 269 307 330 308 330 314 328 333 274 243 223 202 206 238 266 181 185 288 319 248 166 178 246 220
358 1 359 358 358 2 2 4 6 10 10 75 54 256 8 331 282 242 309 314 344 337 332 292 319 328 325 287 54 298 226 233 238 166 191 189 216 272 257 196 228 256 232 149 106 266 213
358 359 358 357 357 359 359 1 3 13 14 81 330 297 14 288 273 109 303 320 355 327 271 316 336 329 351 347 339 297 284 214 175 161 160 167 204 224 240 247 290 351 316 311 158 263 338
356 357 356 356 355 357 354 354 357 357 16 76 275 349 5 273 285 171 254 284 279 23 356 306 343 353 341 10 3 339 310 331 335 303 322 177 239 180 203 233 244 355 350 117 333 314 320
353 354 353 355 352 355 352 349 348 347 352 122 20 329 282 223 239 260 251 236 187 174 328 312 219 299 303 3 6 331 315 320 319 308 350 74 16 300 1 43 342 332 49 7 353 329 324